User: anonymous   Login
Location: *
(33.8649°S, 62.1526°E)
Time: 01:28:30
(UTC+00:00)
Language:

USA 186 - Orbit

View from above orbital plane
View from above orbital plane
View from above satellite
View from above satellite

Ground track
Ground track

The orbit data is extracted from the following two-line orbital elements,

1 28888U 05042A   21098.10937987 0.00016800  00000-0  69404-4 0    04
2 28888  96.8661 137.5854 0125914 229.2180 130.7818 15.74520249    08
Epoch (UTC): 08 April 2021 02:37:30
Eccentricity: 0.0125914
inclination: 96.8661°
perigee height: 261 km
apogee height: 430 km
right ascension of ascending node: 137.5854°
argument of perigee: 229.2180°
revolutions per day: 15.74520249
mean anomaly at epoch: 130.7818°
orbit number at epoch: 0

The dashed part of the orbit path shows where the satellite is in the earth's shadow,  

DLR